"Timestamp","TZ","WindDir_Mean (deg)","WindSpd_Mean (km/h)","WindSpd_Min (km/h)","WindSpd_Max (km/h)","Temp_Mean (deg)","RH_Mean (%)","MSLP_Mean (hPa)","Rain_Acc (mm)","Rain_Intensity (mm/h)","Hail_Acc (hits/cm2)","Hail_Intensity (hits/cm2hr)","Solar_Mean (W/m2)"
2022/03/26 00:00:00.009,n,231,3.6,3.24,4.32,20.4,84.7,1016.22,0,0,0,0,0.036545
2022/03/26 00:01:00.000,n,253,4.32,4.32,4.68,20.4,84.3,1016.22,0,0,0,0,0.03479
2022/03/26 00:02:00.000,n,278,4.32,3.6,4.68,20.3,84.2,1016.22,0,0,0,0,0.032196
2022/03/26 00:03:00.000,n,183,2.88,2.16,3.24,20.3,84.3,1016.22,0,0,0,0,0.032196
2022/03/26 00:04:00.000,n,261,2.52,2.16,2.52,20.3,84.4,1016.22,0,0,0,0,0.033035
2022/03/26 00:05:00.000,n,259,2.88,2.52,3.24,20.3,84.6,1016.22,0,0,0,0,0.031319
2022/03/26 00:06:00.008,n,198,2.88,2.16,3.6,20.3,84.4,1016.22,0,0,0,0,0.032196
2022/03/26 00:07:00.006,n,217,3.6,2.88,3.96,20.3,84.6,1016.22,0,0,0,0,0.032196
2022/03/26 00:08:00.003,n,210,2.88,2.52,3.24,20.4,84.6,1016.22,0,0,0,0,0.033951
2022/03/26 00:09:00.000,n,243,1.08,0,2.52,20.4,85,1016.22,0,0,0,0,0.036545
2022/03/26 00:10:00.000,n,241,2.88,2.88,3.24,20.4,84.6,1016.22,0,0,0,0,0.033035
2022/03/26 00:11:00.000,n,289,1.08,0.72,2.16,20.4,84.4,1016.22,0,0,0,0,0.037384
2022/03/26 00:12:00.000,n,243,3.6,2.88,3.96,20.4,84.3,1016.12,0,0,0,0,0.036545
2022/03/26 00:13:00.007,n,250,3.6,2.52,5.4,20.4,84.3,1016.12,0,0,0,0,0.03479
2022/03/26 00:14:00.004,n,238,2.52,2.16,2.88,20.4,84.1,1016.12,0,0,0,0,0.03479
2022/03/26 00:15:00.000,n,224,2.88,2.16,3.6,20.4,84.3,1016.12,0,0,0,0,0.033035
2022/03/26 00:16:00.000,n,181,1.08,0.36,2.52,20.4,84.3,1016.12,0,0,0,0,0.033951
2022/03/26 00:17:00.011,n,173,3.24,1.08,5.04,20.4,84.2,1016.02,0,0,0,0,0.03479
2022/03/26 00:18:00.008,n,137,7.56,7.2,7.92,20.3,83.8,1016.02,0,0,0,0,0.03479
2022/03/26 00:19:00.000,n,174,5.76,4.68,6.84,20.3,83.7,1016.02,0,0,0,0,0.031319
2022/03/26 00:20:00.002,n,173,3.6,2.52,3.96,20.2,83.6,1016.02,0,0,0,0,0.033035
2022/03/26 00:21:00.000,n,182,2.88,2.16,3.6,20.2,83.5,1015.92,0,0,0,0,0.031319
2022/03/26 00:22:00.000,n,162,5.4,4.68,5.76,20.2,83.4,1015.92,0,0,0,0,0.032196
2022/03/26 00:23:00.000,n,173,6.12,5.76,7.2,20.2,83.2,1015.92,0,0,0,0,0.033035
2022/03/26 00:24:00.007,n,155,7.2,6.12,9,20.2,83.3,1015.92,0,0,0,0,0.032196
2022/03/26 00:25:00.004,n,183,3.96,3.96,4.68,20.2,83.2,1015.92,0,0,0,0,0.033951
2022/03/26 00:26:00.001,n,169,5.76,5.4,6.12,20.2,83.1,1015.82,0,0,0,0,0.032196
2022/03/26 00:27:00.015,n,174,3.6,2.16,4.32,20.2,83.3,1015.82,0,0,0,0,0.033035
2022/03/26 00:28:00.000,n,217,1.08,0.72,2.16,20.2,83.2,1015.82,0,0,0,0,0.031319
2022/03/26 00:29:00.000,n,160,4.68,2.88,5.76,20.2,83,1015.72,0,0,0,0,0.031319
2022/03/26 00:30:00.000,n,180,3.96,3.24,5.04,20.2,83.2,1015.72,0,0,0,0,0.028725
2022/03/26 00:31:00.004,n,174,4.68,3.6,5.76,20.2,82.9,1015.72,0,0,0,0,0.030441
2022/03/26 00:32:00.002,n,168,2.88,2.52,3.6,20.2,82.9,1015.72,0,0,0,0,0.02697
2022/03/26 00:33:00.000,n,182,6.12,5.76,6.48,20.2,82.8,1015.62,0,0,0,0,0.030441
2022/03/26 00:34:00.011,n,145,4.68,4.32,4.68,20.2,83,1015.62,0,0,0,0,0.028725
2022/03/26 00:35:00.008,n,192,3.96,3.6,3.96,20.2,83.1,1015.62,0,0,0,0,0.029602
2022/03/26 00:36:00.005,n,190,5.04,4.32,5.4,20.2,83.1,1015.62,0,0,0,0,0.030441
2022/03/26 00:37:00.000,n,159,1.8,1.08,2.52,20.2,83,1015.62,0,0,0,0,0.02697
2022/03/26 00:38:00.000,n,194,2.16,1.8,2.88,20.2,83.2,1015.62,0,0,0,0,0.02697
2022/03/26 00:39:00.000,n,165,4.32,3.96,4.68,20.2,83.1,1015.62,0,0,0,0,0.029602
2022/03/26 00:40:00.000,n,145,2.88,2.52,3.24,20.3,83.2,1015.62,0,0,0,0,0.02697
2022/03/26 00:41:00.007,n,150,4.68,3.96,4.68,20.3,83.2,1015.62,0,0,0,0,0.027809
2022/03/26 00:42:00.004,n,146,3.6,3.24,3.6,20.3,83.2,1015.62,0,0,0,0,0.026093
2022/03/26 00:43:00.000,n,130,3.6,3.24,3.96,20.2,83.2,1015.62,0,0,0,0,0.02697
2022/03/26 00:44:00.014,n,155,6.48,5.76,6.48,20.2,82.7,1015.62,0,0,0,0,0.02697
2022/03/26 00:45:00.011,n,133,5.76,5.4,6.48,20.2,82.9,1015.62,0,0,0,0,0.026093
2022/03/26 00:46:00.000,n,132,3.24,2.88,3.6,20.2,83.2,1015.62,0,0,0,0,0.027809
2022/03/26 00:47:00.000,n,128,6.48,6.12,7.2,20.3,83.3,1015.62,0,0,0,0,0.026093
2022/03/26 00:48:00.002,n,145,5.76,5.4,6.84,20.3,83.1,1015.62,0,0,0,0,0.024376
2022/03/26 00:49:00.000,n,150,2.16,1.44,2.52,20.2,83.1,1015.62,0,0,0,0,0.027809
2022/03/26 00:50:00.000,n,143,4.68,4.68,6.12,20.2,83.3,1015.62,0,0,0,0,0.030441
2022/03/26 00:51:00.006,n,162,3.6,3.24,4.32,20.2,83.3,1015.62,0,0,0,0,0.028725
2022/03/26 00:52:00.003,n,169,7.56,6.84,7.56,20.2,83.2,1015.62,0,0,0,0,0.032196
2022/03/26 00:53:00.000,n,168,5.4,5.04,6.12,20.2,83.2,1015.72,0,0,0,0,0.02697
2022/03/26 00:54:00.014,n,143,6.12,5.4,6.84,20.2,83.3,1015.72,0,0,0,0,0.027809
2022/03/26 00:55:00.000,n,147,6.48,6.12,7.2,20.2,83.1,1015.72,0,0,0,0,0.030441
2022/03/26 00:56:00.000,n,144,3.96,2.52,4.68,20.2,83.2,1015.72,0,0,0,0,0.026093
2022/03/26 00:57:00.004,n,158,6.84,6.12,7.2,20.2,83.2,1015.72,0,0,0,0,0.026093
2022/03/26 00:58:00.001,n,160,7.2,6.12,7.56,20.1,82.9,1015.62,0,0,0,0,0.027809
2022/03/26 00:59:00.000,n,148,9.36,8.64,9.72,20.1,82.6,1015.62,0,0,0,0,0.028725
2022/03/26 01:00:00.000,n,148,6.84,6.84,7.2,20.1,82.9,1015.62,0,0,0,0,0.025215
2022/03/26 01:01:00.008,n,161,5.76,5.04,7.2,20.1,83,1015.62,0,0,0,0,0.02697
2022/03/26 01:02:00.005,n,163,3.6,2.88,4.68,20.1,82.9,1015.52,0,0,0,0,0.024376
2022/03/26 01:03:00.002,n,163,5.4,5.04,6.12,20.1,82.9,1015.52,0,0,0,0,0.025215
2022/03/26 01:04:00.000,n,162,3.24,2.16,3.96,20.1,82.8,1015.52,0,0,0,0,0.023499
2022/03/26 01:05:00.000,n,164,9,8.28,9.36,20.1,82.7,1015.52,0,0,0,0,0.023499
2022/03/26 01:06:00.000,n,155,6.48,6.12,7.2,20.1,82.4,1015.42,0,0,0,0,0.021744
2022/03/26 01:07:00.007,n,182,6.84,5.04,8.28,20,82.4,1015.52,0,0,0,0,0.020866
2022/03/26 01:08:00.004,n,194,4.32,3.96,4.68,20,82.4,1015.52,0,0,0,0,0.020027
2022/03/26 01:09:00.001,n,159,1.8,1.08,2.52,20,82.7,1015.52,0,0,0,0,0.020027
2022/03/26 01:10:00.000,n,202,7.2,6.48,7.92,20.1,82.4,1015.52,0,0,0,0,0.020027
2022/03/26 01:11:00.010,n,236,6.84,6.48,7.2,20.1,82.4,1015.52,0,0,0,0,0.01915
2022/03/26 01:12:00.008,n,143,2.16,0.72,4.68,20.1,82.4,1015.52,0,0,0,0,0.021744
2022/03/26 01:13:00.000,n,161,8.28,7.2,9,20,81.9,1015.52,0,0,0,0,0.016518
2022/03/26 01:14:00.002,n,205,3.96,3.6,4.32,20,81.9,1015.62,0,0,0,0,0.01915
2022/03/26 01:15:00.000,n,189,7.92,7.56,9,20,81.8,1015.62,0,0,0,0,0.017433
2022/03/26 01:16:00.000,n,201,2.88,2.52,3.6,20,81.7,1015.52,0,0,0,0,0.017433
2022/03/26 01:17:00.000,n,147,2.16,0.72,4.32,20,81.8,1015.52,0,0,0,0,0.01564
2022/03/26 01:18:00.009,n,166,8.28,7.2,9,20,81.7,1015.52,0,0,0,0,0.01564
2022/03/26 01:19:00.005,n,165,6.84,6.48,6.84,20,81.6,1015.52,0,0,0,0,0.013046
2022/03/26 01:20:00.003,n,181,6.84,6.48,7.56,20,81.5,1015.52,0,0,0,0,0.013924
2022/03/26 01:21:00.000,n,153,5.4,4.68,6.12,20,81.6,1015.42,0,0,0,0,0.022621
2022/03/26 01:22:00.000,n,171,4.32,3.96,4.68,20,81.6,1015.42,0,0,0,0,0.027847
2022/03/26 01:23:00.000,n,157,3.24,2.16,5.04,20.1,81.7,1015.42,0,0,0,0,0.027847
2022/03/26 01:24:00.000,n,160,3.6,3.24,4.32,20.1,81.8,1015.42,0,0,0,0,0.02697
2022/03/26 01:25:00.002,n,186,3.6,3.24,4.32,20.1,82,1015.42,0,0,0,0,0.02697
2022/03/26 01:26:00.000,n,151,4.32,3.6,5.04,20.1,81.9,1015.42,0,0,0,0,0.025253
2022/03/26 01:27:00.000,n,112,1.08,0,2.88,20.1,82,1015.32,0,0,0,0,0.026093
2022/03/26 01:28:00.011,n,172,5.04,2.88,7.2,20,81.9,1015.32,0,0,0,0,0.027847
2022/03/26 01:29:00.008,n,204,2.52,1.08,3.24,20,81.9,1015.32,0,0,0,0,0.024338
2022/03/26 01:30:00.005,n,173,8.28,7.56,9.36,20,81.8,1015.32,0,0,0,0,0.025253
2022/03/26 01:31:00.000,n,176,6.12,5.76,6.48,20,81.8,1015.32,0,0,0,0,0.023499
2022/03/26 01:32:00.000,n,163,4.68,3.96,6.12,20,81.8,1015.32,0,0,0,0,0.022621
2022/03/26 01:33:00.000,n,226,2.88,2.52,3.24,20,81.9,1015.32,0,0,0,0,0.023499
2022/03/26 01:34:00.000,n,231,1.8,1.44,2.52,20.1,82.5,1015.32,0,0,0,0,0.026093
2022/03/26 01:35:00.007,n,226,1.08,0.72,1.44,20.1,82.2,1015.32,0,0,0,0,0.023499
2022/03/26 01:36:00.005,n,234,2.88,2.52,3.24,20.1,82.3,1015.42,0,0,0,0,0.018272
2022/03/26 01:37:00.001,n,168,1.8,1.08,1.8,20.1,82.2,1015.42,0,0,0,0,0.020905
2022/03/26 01:38:00.000,n,257,2.88,2.52,3.24,20.1,82,1015.42,0,0,0,0,0.022621
2022/03/26 01:39:00.011,n,313,1.08,0.36,1.44,20.1,82.4,1015.42,0,0,0,0,0.019989
2022/03/26 01:40:00.000,n,217,1.8,1.44,2.16,20.1,82.2,1015.32,0,0,0,0,0.022621
2022/03/26 01:41:00.000,n,267,6.84,6.12,7.2,20,82,1015.32,0,0,0,0,0.019989
2022/03/26 01:42:00.003,n,218,1.08,0.72,1.44,20,82,1015.32,0,0,0,0,0.019112
2022/03/26 01:43:00.000,n,201,4.68,4.32,5.04,20,82.1,1015.32,0,0,0,0,0.020905
2022/03/26 01:44:00.000,n,251,1.44,1.08,2.52,20,82.3,1015.22,0,0,0,0,0.019989
2022/03/26 01:45:00.000,n,222,1.44,1.08,1.44,20,82.4,1015.22,0,0,0,0,0.019989
2022/03/26 01:46:00.009,n,225,2.52,2.16,2.52,20,82.4,1015.22,0,0,0,0,0.021744
2022/03/26 01:47:00.006,n,246,3.96,3.6,4.68,20,82.5,1015.22,0,0,0,0,0.022621
2022/03/26 01:48:00.004,n,278,1.8,1.08,2.52,20,82.3,1015.22,0,0,0,0,0.021744
2022/03/26 01:49:00.000,n,264,3.24,2.52,3.6,20,82.4,1015.22,0,0,0,0,0.019989
2022/03/26 01:50:00.000,n,237,0.72,0.36,1.44,20,82.5,1015.22,0,0,0,0,0.026093
2022/03/26 01:51:00.000,n,154,1.08,0.36,2.16,20,83,1015.22,0,0,0,0,0.031319
2022/03/26 01:52:00.000,n,204,2.16,1.8,2.88,20,82.8,1015.22,0,0,0,0,0.029602
2022/03/26 01:53:00.003,n,252,5.04,4.32,6.12,20,82.5,1015.22,0,0,0,0,0.030441
2022/03/26 01:54:00.000,n,248,2.16,1.44,3.24,20,82.6,1015.22,0,0,0,0,0.031319
2022/03/26 01:55:00.000,n,254,2.88,1.44,3.96,20,82.8,1015.22,0,0,0,0,0.033073
2022/03/26 01:56:00.010,n,255,5.04,3.24,5.76,20,83.1,1015.12,0,0,0,0,0.029602
2022/03/26 01:57:00.007,n,260,1.08,0.72,1.44,20.1,82.9,1015.12,0,0,0,0,0.028725
2022/03/26 01:58:00.000,n,248,3.96,3.24,4.32,20.1,82.5,1015.12,0,0,0,0,0.029602
2022/03/26 01:59:00.001,n,266,2.88,2.52,2.88,20,82.5,1015.12,0,0,0,0,0.032196
2022/03/26 02:00:00.000,n,156,2.52,2.16,2.88,20,82.6,1015.02,0,0,0,0,0.032196
2022/03/26 02:01:00.000,n,147,4.32,3.96,5.76,19.9,82.3,1015.02,0,0,0,0,0.028725
2022/03/26 02:02:00.000,n,176,5.4,5.04,6.84,19.9,82.3,1014.92,0,0,0,0,0.029602
2022/03/26 02:03:00.006,n,166,2.52,2.16,2.52,19.9,82.3,1014.92,0,0,0,0,0.029602
2022/03/26 02:04:00.003,n,205,5.04,3.96,6.12,19.9,82.3,1014.92,0,0,0,0,0.030441
2022/03/26 02:05:00.000,n,186,8.28,6.84,9,19.9,82.2,1014.82,0,0,0,0,0.026093
2022/03/26 02:06:00.015,n,134,2.16,0.36,2.52,19.9,82.2,1014.82,0,0,0,0,0.025253
2022/03/26 02:07:00.000,n,293,1.8,0.36,3.24,19.9,82.4,1014.82,0,0,0,0,0.029602
2022/03/26 02:08:00.000,n,21,1.44,1.08,2.52,19.9,83.3,1014.92,0,0,0,0,0.029602
2022/03/26 02:09:00.000,n,251,1.8,1.44,2.16,20,83,1014.92,0,0,0,0,0.033073
2022/03/26 02:10:00.003,n,279,1.8,1.44,2.88,20,82.7,1014.92,0,0,0,0,0.027847
2022/03/26 02:11:00.000,n,277,2.16,1.44,4.32,20,83.1,1014.92,0,0,0,0,0.028725
2022/03/26 02:12:00.000,n,272,4.32,3.24,5.04,20,82.6,1014.92,0,0,0,0,0.02697
2022/03/26 02:13:00.011,n,270,3.96,3.24,4.68,20,82.2,1014.92,0,0,0,0,0.02697
2022/03/26 02:14:00.008,n,77,0.72,0.36,0.72,20,82.3,1014.92,0,0,0,0,0.028725
2022/03/26 02:15:00.007,n,234,2.16,1.8,2.16,20,82.5,1014.82,0,0,0,0,0.031319
2022/03/26 02:16:00.000,n,266,1.08,0.36,2.16,20,82.5,1014.82,0,0,0,0,0.032196
2022/03/26 02:17:00.000,n,250,1.8,1.08,1.8,20,82.5,1014.82,0,0,0,0,0.027847
2022/03/26 02:18:00.000,n,228,1.08,0.72,1.8,20,82.8,1014.82,0,0,0,0,0.027847
2022/03/26 02:19:00.000,n,268,3.24,2.88,3.6,20,82.6,1014.82,0,0,0,0,0.026093
2022/03/26 02:20:00.007,n,208,2.16,2.16,2.52,20,82.5,1014.82,0,0,0,0,0.027847
2022/03/26 02:21:00.005,n,265,2.52,2.16,3.24,20,82.3,1014.92,0,0,0,0,0.029602
2022/03/26 02:22:00.002,n,285,5.04,5.04,5.76,19.9,82.3,1014.92,0,0,0,0,0.031319
2022/03/26 02:23:00.000,n,199,1.08,0.72,1.44,19.9,83,1014.92,0,0,0,0,0.031319
2022/03/26 02:24:00.013,n,265,2.88,1.8,3.6,19.9,82.7,1014.92,0,0,0,0,0.029602
2022/03/26 02:25:00.000,n,148,2.16,1.08,3.24,19.9,82.5,1014.92,0,0,0,0,0.027847
2022/03/26 02:26:00.000,n,252,3.6,2.88,4.68,19.9,82.5,1014.82,0,0,0,0,0.029602
2022/03/26 02:27:00.005,n,94,0.72,0.36,1.08,19.9,82.5,1014.82,0,0,0,0,0.030441
2022/03/26 02:28:00.002,n,231,5.76,4.32,8.28,19.9,82.5,1014.82,0,0,0,0,0.031319
2022/03/26 02:29:00.000,n,117,0.72,0.72,1.8,19.9,82.5,1014.82,0,0,0,0,0.028725
2022/03/26 02:30:00.000,n,138,3.24,1.8,4.32,19.9,82.7,1014.82,0,0,0,0,0.026093
2022/03/26 02:31:00.010,n,140,2.16,1.44,2.88,19.9,82.7,1014.82,0,0,0,0,0.031319
2022/03/26 02:32:00.008,n,172,2.52,1.44,3.24,19.8,82.5,1014.82,0,0,0,0,0.02697
2022/03/26 02:33:00.005,n,119,1.44,0.72,2.16,19.8,82.5,1014.82,0,0,0,0,0.02697
2022/03/26 02:34:00.000,n,118,2.52,1.08,3.6,19.8,82.5,1014.82,0,0,0,0,0.02697
2022/03/26 02:35:00.000,n,169,11.52,10.08,12.6,19.8,82.4,1014.72,0,0,0,0,0.031319
2022/03/26 02:36:00.000,n,187,4.68,3.96,5.76,19.8,82.8,1014.72,0,0,0,0,0.029602
2022/03/26 02:37:00.000,n,172,3.96,3.24,5.04,19.8,82.7,1014.72,0,0,0,0,0.029602
2022/03/26 02:38:00.008,n,141,3.24,2.52,3.6,19.8,82.3,1014.72,0,0,0,0,0.028725
2022/03/26 02:39:00.004,n,241,2.88,2.52,3.24,19.8,82.5,1014.72,0,0,0,0,0.027847
2022/03/26 02:40:00.001,n,231,1.08,0.72,1.08,19.8,82.6,1014.72,0,0,0,0,0.02697
2022/03/26 02:41:00.000,n,253,3.96,3.6,4.32,19.8,82.6,1014.72,0,0,0,0,0.026093
2022/03/26 02:42:00.013,n,248,2.16,2.16,2.88,19.8,82.7,1014.72,0,0,0,0,0.030441
2022/03/26 02:43:00.000,n,267,1.8,1.44,2.16,19.8,83.1,1014.72,0,0,0,0,0.028725
2022/03/26 02:44:00.000,n,150,0.72,0.36,1.8,19.9,83.1,1014.72,0,0,0,0,0.028725
2022/03/26 02:45:00.004,n,171,1.44,0.72,2.16,19.9,83,1014.72,0,0,0,0,0.030441
2022/03/26 02:46:00.002,n,155,0.72,0.36,1.08,19.9,82.7,1014.72,0,0,0,0,0.027847
2022/03/26 02:47:00.000,n,154,2.52,1.08,4.32,19.8,82.6,1014.72,0,0,0,0,0.027847
2022/03/26 02:48:00.000,n,126,3.24,2.52,3.96,19.8,82.5,1014.72,0,0,0,0,0.027847
2022/03/26 02:49:00.010,n,159,2.88,2.52,3.6,19.8,82.4,1014.72,0,0,0,0,0.02697
2022/03/26 02:50:00.007,n,168,6.84,6.12,8.28,19.8,82.4,1014.72,0,0,0,0,0.025253
2022/03/26 02:51:00.004,n,197,4.68,3.96,5.04,19.8,82.5,1014.72,0,0,0,0,0.024376
2022/03/26 02:52:00.001,n,165,3.96,3.6,4.68,19.8,82.7,1014.62,0,0,0,0,0.027847
2022/03/26 02:53:00.000,n,234,1.8,1.44,2.16,19.8,82.7,1014.62,0,0,0,0,0.027847
2022/03/26 02:54:00.000,n,251,2.16,1.8,2.52,19.8,82.8,1014.62,0,0,0,0,0.027847
2022/03/26 02:55:00.000,n,236,2.88,2.52,3.24,19.8,83.5,1014.62,0,0,0,0,0.029602
2022/03/26 02:56:00.008,n,265,2.52,2.16,2.52,19.9,83.2,1014.62,0,0,0,0,0.028725
2022/03/26 02:57:00.006,n,241,1.8,1.08,2.88,19.9,83.1,1014.62,0,0,0,0,0.02697
2022/03/26 02:58:00.003,n,194,3.96,3.6,4.68,19.9,82.8,1014.62,0,0,0,0,0.023499
2022/03/26 02:59:00.000,n,242,2.52,2.16,2.88,19.8,82.8,1014.62,0,0,0,0,0.02697
2022/03/26 03:00:00.013,n,165,2.52,2.52,3.24,19.8,82.8,1014.62,0,0,0,0,0.029602
2022/03/26 03:01:00.000,n,81,1.08,0.36,2.16,19.8,82.9,1014.62,0,0,0,0,0.030441
2022/03/26 03:02:00.000,n,155,4.32,3.24,5.4,19.8,82.7,1014.62,0,0,0,0,0.031319
2022/03/26 03:03:00.000,n,191,3.24,2.52,3.6,19.8,82.5,1014.62,0,0,0,0,0.023499
2022/03/26 03:04:00.003,n,182,1.8,1.08,2.16,19.8,82.7,1014.62,0,0,0,0,0.029602
2022/03/26 03:05:00.002,n,255,2.16,1.8,2.52,19.8,82.7,1014.62,0,0,0,0,0.026093
2022/03/26 03:06:00.000,n,256,2.52,2.16,3.24,19.8,82.8,1014.62,0,0,0,0,0.02697
2022/03/26 03:07:00.000,n,203,2.52,1.44,3.6,19.8,83.1,1014.62,0,0,0,0,0.028725
2022/03/26 03:08:00.011,n,234,3.96,3.6,4.32,19.8,83.3,1014.62,0,0,0,0,0.026093
2022/03/26 03:09:00.009,n,245,2.88,2.88,3.24,19.8,83.2,1014.62,0,0,0,0,0.02697
2022/03/26 03:10:00.000,n,163,1.08,0.72,1.44,19.9,83.3,1014.62,0,0,0,0,0.024376
2022/03/26 03:11:00.003,n,278,5.04,3.6,5.4,19.9,83.6,1014.72,0,0,0,0,0.026093
2022/03/26 03:12:00.000,n,291,3.96,3.24,5.4,19.9,83.4,1014.72,0,0,0,0,0.024376
2022/03/26 03:13:00.000,n,250,2.88,2.52,3.6,19.9,83,1014.72,0,0,0,0,0.026093
2022/03/26 03:14:00.000,n,278,4.68,3.6,5.76,19.8,83,1014.72,0,0,0,0,0.027847
2022/03/26 03:15:00.008,n,283,3.96,3.6,4.68,19.8,83.1,1014.72,0,0,0,0,0.025253
2022/03/26 03:16:00.005,n,260,3.6,2.88,4.68,19.8,83,1014.72,0,0,0,0,0.030441
2022/03/26 03:17:00.002,n,271,2.52,2.16,2.88,19.8,83.2,1014.82,0,0,0,0,0.02697
2022/03/26 03:18:00.015,n,271,4.32,2.52,5.76,19.8,83.9,1014.82,0,0,0,0,0.027847
2022/03/26 03:19:00.000,n,238,3.96,3.24,3.96,19.9,83.8,1014.82,0,0,0,0,0.025253
2022/03/26 03:20:00.000,n,261,4.32,1.44,5.04,20,83.7,1014.82,0,0,0,0,0.025253
2022/03/26 03:21:00.000,n,279,6.12,5.04,7.92,20,83.7,1014.82,0,0,0,0,0.026093
2022/03/26 03:22:00.005,n,266,3.24,2.52,3.6,20,83.9,1014.82,0,0,0,0,0.024376
2022/03/26 03:23:00.002,n,267,2.52,2.52,2.88,20,83.4,1014.92,0,0,0,0,0.025253
2022/03/26 03:24:00.000,n,302,0.72,0.36,1.44,19.9,83.4,1014.92,0,0,0,0,0.020866
2022/03/26 03:25:00.012,n,283,3.6,3.24,3.6,19.9,83.7,1014.92,0,0,0,0,0.024376
2022/03/26 03:26:00.008,n,275,3.96,3.6,4.32,19.9,83.5,1014.92,0,0,0,0,0.025253
2022/03/26 03:27:00.005,n,281,2.52,1.8,2.88,19.9,83.7,1014.92,0,0,0,0,0.02697
2022/03/26 03:28:00.000,n,289,0.72,0.36,1.08,19.9,84.1,1014.92,0,0,0,0,0.020866
2022/03/26 03:29:00.000,n,200,1.44,1.08,1.8,19.9,83.7,1014.92,0,0,0,0,0.021744
2022/03/26 03:30:00.000,n,289,4.32,3.24,5.76,20,83.8,1014.92,0,0,0,0,0.024376
2022/03/26 03:31:00.000,n,136,2.88,2.52,3.24,19.9,83.6,1014.92,0,0,0,0,0.022659
2022/03/26 03:32:00.007,n,5,1.8,1.08,2.52,19.9,84.1,1014.92,0,0,0,0,0.024376
2022/03/26 03:33:00.006,n,268,3.24,3.24,3.6,20,84.2,1014.92,0,0,0,0,0.025253
2022/03/26 03:34:00.003,n,281,2.88,2.16,3.24,20,83.6,1014.92,0,0,0,0,0.024376
2022/03/26 03:35:00.001,n,255,4.32,3.6,5.76,19.9,83.4,1014.92,0,0,0,0,0.023499
2022/03/26 03:36:00.015,n,252,3.96,3.24,4.68,19.9,83.5,1014.92,0,0,0,0,0.02697
2022/03/26 03:37:00.000,n,239,2.16,1.44,2.16,19.9,83.9,1014.82,0,0,0,0,0.021744
2022/03/26 03:38:00.000,n,211,1.8,1.08,1.8,19.9,83.7,1014.82,0,0,0,0,0.024376
2022/03/26 03:39:00.000,n,244,3.24,2.88,3.6,19.8,83.7,1014.82,0,0,0,0,0.020866
2022/03/26 03:40:00.006,n,270,5.76,4.68,6.84,19.8,84.1,1014.82,0,0,0,0,0.021744
2022/03/26 03:41:00.005,n,259,2.16,1.08,3.6,19.9,84.2,1014.92,0,0,0,0,0.024376
2022/03/26 03:42:00.001,n,249,5.4,5.04,5.4,19.9,83.8,1014.92,0,0,0,0,0.026093
2022/03/26 03:43:00.000,n,268,4.32,3.24,5.04,19.8,83.8,1014.92,0,0,0,0,0.020866
2022/03/26 03:44:00.012,n,224,2.16,2.16,2.52,19.8,83.7,1014.92,0,0,0,0,0.023499
2022/03/26 03:45:00.009,n,301,4.32,3.24,5.04,19.8,83.8,1014.92,0,0,0,0,0.020866
2022/03/26 03:46:00.000,n,292,3.96,3.6,4.68,19.8,83.9,1014.92,0,0,0,0,0.02697
2022/03/26 03:47:00.001,n,254,1.8,0.72,2.52,19.8,84.1,1014.92,0,0,0,0,0.026093
2022/03/26 03:48:00.000,n,281,1.44,1.08,1.8,19.8,83.9,1014.82,0,0,0,0,0.025253
2022/03/26 03:49:00.000,n,219,1.08,0,1.8,19.8,84,1014.82,0,0,0,0,0.028725
2022/03/26 03:50:00.000,n,253,3.96,3.6,4.32,19.8,84,1014.82,0,0,0,0,0.02697
2022/03/26 03:51:00.006,n,101,1.44,1.08,2.16,19.8,84,1014.82,0,0,0,0,0.028725
2022/03/26 03:52:00.004,n,268,4.68,3.96,5.76,19.8,83.6,1014.92,0,0,0,0,0.026093
2022/03/26 03:53:00.001,n,134,2.16,1.44,2.52,19.8,83.7,1014.92,0,0,0,0,0.027885
2022/03/26 03:54:00.014,n,190,2.16,1.44,2.16,19.8,83.6,1014.92,0,0,0,0,0.028725
2022/03/26 03:55:00.000,n,171,0.72,0.36,0.72,19.8,83.6,1014.92,0,0,0,0,0.02697
2022/03/26 03:56:00.000,n,195,1.8,1.44,1.8,19.7,83.6,1014.92,0,0,0,0,0.027885
2022/03/26 03:57:00.000,n,146,0.36,0.36,0.72,19.8,84,1014.92,0,0,0,0,0.027885
2022/03/26 03:58:00.004,n,146,2.88,2.52,3.24,19.8,83.5,1014.92,0,0,0,0,0.02697
2022/03/26 03:59:00.001,n,182,4.32,3.6,5.04,19.8,83.4,1014.92,0,0,0,0,0.025253
2022/03/26 04:00:00.000,n,210,2.88,1.8,5.04,19.7,83.4,1014.92,0,0,0,0,0.026093
2022/03/26 04:01:00.000,n,254,5.76,4.32,6.84,19.7,83.5,1014.92,0,0,0,0,0.027885
2022/03/26 04:02:00.011,n,252,2.52,2.16,2.88,19.8,83.5,1014.92,0,0,0,0,0.024376
2022/03/26 04:03:00.008,n,234,2.52,2.16,2.88,19.8,83.5,1014.92,0,0,0,0,0.024376
2022/03/26 04:04:00.000,n,213,1.08,0.36,2.16,19.8,83.7,1014.92,0,0,0,0,0.028725
2022/03/26 04:05:00.003,n,201,2.88,2.88,3.24,19.8,83.7,1015.02,0,0,0,0,0.02697
2022/03/26 04:06:00.000,n,253,1.44,0.72,2.52,19.8,84,1015.02,0,0,0,0,0.025253
2022/03/26 04:07:00.000,n,246,2.88,2.52,3.6,19.8,83.7,1015.02,0,0,0,0,0.02697
2022/03/26 04:08:00.000,n,254,2.52,2.16,3.24,19.8,83.7,1015.02,0,0,0,0,0.024376
2022/03/26 04:09:00.008,n,157,3.6,3.24,3.6,19.8,83.8,1015.02,0,0,0,0,0.025253
2022/03/26 04:10:00.005,n,271,0.72,0.36,1.08,19.8,83.8,1015.02,0,0,0,0,0.027885
2022/03/26 04:11:00.004,n,247,4.68,4.32,5.04,19.8,83.9,1015.12,0,0,0,0,0.022659
2022/03/26 04:12:00.001,n,222,4.32,3.96,4.68,19.8,83.7,1015.12,0,0,0,0,0.026093
2022/03/26 04:13:00.000,n,198,1.8,1.08,2.52,19.8,83.9,1015.12,0,0,0,0,0.025253
2022/03/26 04:14:00.000,n,105,1.8,1.44,2.16,19.9,84.3,1015.12,0,0,0,0,0.02697
2022/03/26 04:15:00.000,n,342,0.72,0.36,0.72,19.9,84.1,1015.12,0,0,0,0,0.026093
2022/03/26 04:16:00.006,n,229,2.88,2.52,3.24,19.9,83.8,1015.12,0,0,0,0,0.022659
2022/03/26 04:17:00.003,n,219,1.08,0.72,1.08,19.9,83.8,1015.12,0,0,0,0,0.027885
2022/03/26 04:18:00.001,n,280,3.96,3.6,4.32,19.8,83.8,1015.12,0,0,0,0,0.025253
2022/03/26 04:19:00.000,n,28,1.08,0.72,2.16,19.8,83.7,1015.12,0,0,0,0,0.025253
2022/03/26 04:20:00.013,n,263,3.96,3.6,4.32,19.8,83.7,1015.12,0,0,0,0,0.023499
2022/03/26 04:21:00.010,n,137,0.36,0.36,0.72,19.8,83.7,1015.12,0,0,0,0,0.025253
2022/03/26 04:22:00.000,n,345,3.6,1.8,5.4,19.8,83.9,1015.12,0,0,0,0,0.027885
2022/03/26 04:23:00.000,n,222,0.36,0,0.36,19.8,83.9,1015.12,0,0,0,0,0.024376
2022/03/26 04:24:00.001,n,266,4.32,3.96,4.32,19.8,83.7,1015.12,0,0,0,0,0.025253
2022/03/26 04:25:00.000,n,235,3.24,2.88,3.6,19.8,83.9,1015.12,0,0,0,0,0.024376
2022/03/26 04:26:00.000,n,222,2.52,1.44,3.24,19.8,83.6,1015.12,0,0,0,0,0.024376
2022/03/26 04:27:00.009,n,243,2.16,1.44,2.52,19.8,83.6,1015.12,0,0,0,0,0.02697
2022/03/26 04:28:00.006,n,200,3.6,3.24,3.96,19.8,83.8,1015.12,0,0,0,0,0.022659
2022/03/26 04:29:00.003,n,158,2.16,1.44,2.88,19.8,83.7,1015.12,0,0,0,0,0.022659
2022/03/26 04:30:00.001,n,74,0.72,0.36,1.08,19.8,83.6,1015.12,0,0,0,0,0.02697
2022/03/26 04:31:00.000,n,89,1.44,0.72,1.8,19.7,83.7,1015.12,0,0,0,0,0.021744
2022/03/26 04:32:00.000,n,220,3.24,0.36,5.76,19.7,83.5,1015.12,0,0,0,0,0.021744
2022/03/26 04:33:00.000,n,176,4.32,3.6,4.68,19.7,83.4,1015.12,0,0,0,0,0.021744
2022/03/26 04:34:00.006,n,151,1.8,0.72,3.24,19.7,83.4,1015.22,0,0,0,0,0.020866
2022/03/26 04:35:00.004,n,209,1.8,0.72,2.16,19.7,83.5,1015.22,0,0,0,0,0.023499
2022/03/26 04:36:00.003,n,161,3.6,2.88,4.32,19.7,83.5,1015.22,0,0,0,0,0.020866
2022/03/26 04:37:00.000,n,274,3.96,3.96,4.32,19.7,83.5,1015.22,0,0,0,0,0.023499
2022/03/26 04:38:00.013,n,255,3.24,3.24,3.6,19.7,83.5,1015.22,0,0,0,0,0.024376
2022/03/26 04:39:00.010,n,217,1.08,1.08,1.44,19.7,83.6,1015.22,0,0,0,0,0.023499
2022/03/26 04:40:00.000,n,149,1.44,0.72,2.16,19.7,83.6,1015.22,0,0,0,0,0.020866
2022/03/26 04:41:00.000,n,175,3.24,2.16,3.96,19.7,83.6,1015.22,0,0,0,0,0.025253
2022/03/26 04:42:00.002,n,176,1.8,0.72,2.16,19.7,83.6,1015.22,0,0,0,0,0.025253
2022/03/26 04:43:00.000,n,168,3.96,1.44,6.12,19.7,83.7,1015.22,0,0,0,0,0.022659
2022/03/26 04:44:00.000,n,181,4.32,3.96,5.04,19.7,83.7,1015.22,0,0,0,0,0.024376
2022/03/26 04:45:00.009,n,175,5.4,4.68,6.12,19.7,83.7,1015.12,0,0,0,0,0.023499
2022/03/26 04:46:00.006,n,210,3.24,3.24,3.6,19.7,83.7,1015.12,0,0,0,0,0.023499
2022/03/26 04:47:00.003,n,174,2.16,1.44,3.6,19.6,83.8,1015.12,0,0,0,0,0.022659
2022/03/26 04:48:00.001,n,170,1.8,1.08,3.6,19.6,83.9,1015.12,0,0,0,0,0.023499
2022/03/26 04:49:00.000,n,208,0.72,0.36,1.44,19.6,83.9,1015.12,0,0,0,0,0.023499
2022/03/26 04:50:00.000,n,204,3.24,3.24,3.96,19.6,84,1015.12,0,0,0,0,0.020027
2022/03/26 04:51:00.000,n,263,3.6,3.24,3.96,19.6,84.1,1015.22,0,0,0,0,0.020866
2022/03/26 04:52:00.000,n,251,3.24,2.16,3.96,19.7,84.2,1015.22,0,0,0,0,0.022659
2022/03/26 04:53:00.004,n,219,0.72,0.36,1.08,19.7,84.3,1015.22,0,0,0,0,0.021744
2022/03/26 04:54:00.001,n,253,3.24,2.52,3.6,19.7,84.4,1015.22,0,0,0,0,0.022659
2022/03/26 04:55:00.000,n,215,1.08,0.72,1.44,19.7,84.6,1015.22,0,0,0,0,0.024376
2022/03/26 04:56:00.013,n,260,2.16,1.08,2.88,19.7,84.5,1015.32,0,0,0,0,0.020027